TimeCST,TemperatureF,Dew PointF,Humidity,Sea Level PressureIn,VisibilityMPH,Wind Direction,Wind SpeedMPH,Gust SpeedMPH,PrecipitationIn,Events,Conditions,WindDirDegrees,DateUTC
12:15 AM,34.3,28.6,79,30.08,10.0,East,4.6,-,N/A,,Overcast,80,2012-12-09 06:15:00
12:35 AM,34.3,28.8,80,30.08,10.0,East,6.9,-,N/A,,Overcast,80,2012-12-09 06:35:00
1:15 AM,33.6,28.4,81,30.05,10.0,East,8.1,-,N/A,,Overcast,90,2012-12-09 07:15:00
1:35 AM,33.3,28.8,84,30.05,10.0,East,6.9,-,N/A,,Scattered Clouds,90,2012-12-09 07:35:00
1:55 AM,33.8,29.7,85,30.05,10.0,ESE,8.1,-,N/A,,Clear,110,2012-12-09 07:55:00
2:15 AM,34.0,30.2,86,30.05,10.0,East,8.1,-,N/A,,Scattered Clouds,100,2012-12-09 08:15:00
2:35 AM,34.7,30.4,84,30.05,10.0,East,5.8,-,N/A,,Mostly Cloudy,90,2012-12-09 08:35:00
2:55 AM,34.9,30.4,84,30.05,10.0,East,9.2,-,N/A,,Overcast,90,2012-12-09 08:55:00
3:15 AM,34.3,30.2,85,30.03,10.0,East,10.4,-,N/A,,Overcast,80,2012-12-09 09:15:00
3:35 AM,33.8,29.8,85,30.02,10.0,East,6.9,-,N/A,,Overcast,80,2012-12-09 09:35:00
3:55 AM,34.3,30.2,85,30.01,10.0,East,6.9,-,N/A,,Overcast,80,2012-12-09 09:55:00
4:15 AM,34.9,30.2,83,30.01,10.0,ENE,6.9,-,N/A,,Overcast,70,2012-12-09 10:15:00
4:35 AM,34.9,30.2,83,30.01,10.0,East,9.2,-,N/A,,Overcast,80,2012-12-09 10:35:00
4:55 AM,35.1,30.0,82,30.00,10.0,East,6.9,-,N/A,,Overcast,80,2012-12-09 10:55:00
5:15 AM,36.5,29.5,76,30.01,10.0,ESE,12.7,17.3,N/A,,Overcast,110,2012-12-09 11:15:00
5:55 AM,35.1,31.1,85,30.01,2.0,East,10.4,-,N/A,,Overcast,100,2012-12-09 11:55:00
6:15 AM,34.5,32.4,92,30.00,1.5,East,6.9,-,N/A,,Overcast,90,2012-12-09 12:15:00
6:35 AM,34.2,32.9,95,30.00,1.5,East,8.1,-,N/A,,Overcast,80,2012-12-09 12:35:00
6:55 AM,34.0,32.9,96,29.99,1.5,ENE,9.2,-,0.01,,Overcast,70,2012-12-09 12:55:00
7:15 AM,33.8,32.9,96,29.99,1.8,ENE,8.1,-,N/A,,Overcast,70,2012-12-09 13:15:00
7:35 AM,33.8,32.9,96,29.99,1.2,ENE,8.1,-,N/A,,Overcast,60,2012-12-09 13:35:00
7:55 AM,33.8,32.9,96,29.98,0.8,ENE,8.1,-,0.01,,Overcast,60,2012-12-09 13:55:00
8:35 AM,33.8,32.9,96,29.97,0.8,ENE,8.1,-,0.01,,Overcast,70,2012-12-09 14:35:00
8:55 AM,33.8,32.9,96,29.95,0.8,ENE,9.2,-,0.01,,Overcast,70,2012-12-09 14:55:00
9:15 AM,34.0,33.1,96,29.95,1.0,East,6.9,-,0.01,,Overcast,80,2012-12-09 15:15:00
9:35 AM,34.0,33.1,96,29.94,1.0,East,9.2,-,0.01,,Overcast,80,2012-12-09 15:35:00
9:55 AM,34.2,33.3,97,29.93,1.2,ENE,9.2,-,0.01,,Overcast,60,2012-12-09 15:55:00
10:15 AM,34.2,33.3,97,29.92,0.8,East,6.9,-,0.01,,Overcast,80,2012-12-09 16:15:00
10:35 AM,34.2,33.3,97,29.91,0.8,ENE,6.9,-,0.02,,Overcast,70,2012-12-09 16:35:00
10:55 AM,34.2,33.3,97,29.90,0.8,ENE,6.9,-,0.04,,Overcast,60,2012-12-09 16:55:00
11:15 AM,34.3,33.4,97,29.88,0.8,ENE,6.9,-,0.02,,Overcast,70,2012-12-09 17:15:00
11:35 AM,34.3,33.4,97,29.88,0.5,ENE,4.6,-,0.04,,Overcast,70,2012-12-09 17:35:00
11:55 AM,34.2,33.3,97,29.86,0.5,ENE,5.8,-,0.07,,Overcast,70,2012-12-09 17:55:00
12:15 PM,34.2,33.6,98,29.85,0.5,ENE,5.8,-,0.02,,Overcast,60,2012-12-09 18:15:00
12:35 PM,34.2,33.6,98,29.83,0.5,ENE,6.9,-,0.04,,Overcast,70,2012-12-09 18:35:00
12:55 PM,34.3,33.4,97,29.82,0.8,ENE,6.9,-,0.05,,Overcast,70,2012-12-09 18:55:00
1:15 PM,34.3,33.4,97,29.81,1.2,ENE,8.1,-,0.01,,Overcast,70,2012-12-09 19:15:00
1:35 PM,34.3,33.4,97,29.80,1.8,East,5.8,-,0.01,,Overcast,80,2012-12-09 19:35:00
1:55 PM,34.7,33.8,97,29.79,2.5,ENE,8.1,-,0.01,,Overcast,70,2012-12-09 19:55:00
2:35 PM,34.7,33.6,96,29.77,3.0,East,9.2,-,N/A,,Overcast,80,2012-12-09 20:35:00
2:55 PM,34.9,33.8,96,29.78,2.5,East,5.8,-,N/A,,Overcast,80,2012-12-09 20:55:00
3:15 PM,34.7,33.8,97,29.76,2.0,East,8.1,-,N/A,,Overcast,100,2012-12-09 21:15:00
3:35 PM,34.7,33.8,97,29.77,3.0,East,6.9,-,N/A,,Overcast,90,2012-12-09 21:35:00
3:55 PM,34.7,33.6,96,29.76,4.0,East,10.4,16.1,N/A,,Overcast,100,2012-12-09 21:55:00
4:15 PM,34.7,33.4,95,29.76,2.5,East,8.1,-,N/A,,Overcast,90,2012-12-09 22:15:00
4:35 PM,34.5,33.4,96,29.75,1.8,East,8.1,-,N/A,,Overcast,80,2012-12-09 22:35:00
4:55 PM,34.3,33.4,97,29.75,3.0,East,5.8,-,N/A,,Overcast,80,2012-12-09 22:55:00
5:15 PM,34.3,33.4,97,29.74,4.0,East,5.8,-,N/A,,Overcast,90,2012-12-09 23:15:00
5:55 PM,34.3,33.6,97,29.75,2.0,ENE,3.5,-,N/A,,Overcast,70,2012-12-09 23:55:00
6:15 PM,34.0,33.3,97,29.75,1.8,Calm,Calm,-,0.01,,Overcast,0,2012-12-10 00:15:00
6:35 PM,33.8,33.1,97,29.74,2.0,North,3.5,-,0.01,,Overcast,10,2012-12-10 00:35:00
6:55 PM,33.8,33.3,98,29.73,3.0,NNE,4.6,-,0.01,,Overcast,20,2012-12-10 00:55:00
7:15 PM,34.0,33.4,98,29.73,4.0,NNE,3.5,-,N/A,,Overcast,20,2012-12-10 01:15:00
7:35 PM,33.8,33.3,98,29.71,4.0,NE,5.8,-,N/A,,Overcast,40,2012-12-10 01:35:00
7:55 PM,33.8,33.3,98,29.71,5.0,NNE,3.5,-,N/A,,Overcast,20,2012-12-10 01:55:00
8:35 PM,33.8,33.3,98,29.71,5.0,Calm,Calm,-,N/A,,Overcast,0,2012-12-10 02:35:00
8:55 PM,33.8,33.3,98,29.71,4.0,WNW,3.5,-,N/A,,Overcast,290,2012-12-10 02:55:00
9:15 PM,33.8,33.3,98,29.71,2.0,West,4.6,-,N/A,,Overcast,280,2012-12-10 03:15:00
9:35 PM,34.0,33.4,98,29.71,2.0,Calm,Calm,-,N/A,,Overcast,0,2012-12-10 03:35:00
9:55 PM,34.0,33.4,98,29.70,2.5,WNW,3.5,-,N/A,,Overcast,300,2012-12-10 03:55:00
10:15 PM,34.0,33.4,98,29.70,4.0,West,4.6,-,N/A,,Overcast,280,2012-12-10 04:15:00
10:35 PM,34.0,33.4,98,29.70,4.0,West,4.6,-,N/A,,Overcast,280,2012-12-10 04:35:00
10:55 PM,33.8,33.3,98,29.70,5.0,West,4.6,-,N/A,,Overcast,280,2012-12-10 04:55:00
11:15 PM,33.8,33.3,98,29.70,5.0,West,4.6,-,N/A,,Overcast,280,2012-12-10 05:15:00
11:35 PM,33.8,33.3,98,29.69,4.0,West,4.6,-,N/A,,Overcast,280,2012-12-10 05:35:00
11:55 PM,33.8,33.1,97,29.69,2.0,West,5.8,-,N/A,,Overcast,280,2012-12-10 05:55:00